Theta_e
310 310 309 307 305 303 303 303 301 298 295 293 293 292 292 292 292 291 291 290 289 289 289 288 287 286 285 285 284 284 283 283 283 283 282 282 282 281 281 281 281 281 282
311 309 307 306 304 304 302 299 298 295 293 293 292 292 292 291 291 290 290 289 288 288 287 286 285 284 284 283 282 282 282 282 282 282 281 280 280 280 280 280 280 280 280
307 308 305 303 302 301 299 298 295 293 292 292 292 291 291 290 290 289 288 288 288 287 286 285 283 283 282 281 281 280 281 281 281 280 279 279 279 279 279 279 279 278 279
304 303 303 301 300 299 298 295 293 292 292 292 292 291 290 289 289 288 287 287 287 286 284 283 282 282 281 280 280 280 280 280 279 278 278 279 278 278 278 278 277 277 277
302 302 301 300 299 298 296 294 293 292 292 291 290 289 289 288 287 287 287 286 285 284 283 282 282 281 280 279 279 279 279 278 278 277 277 277 277 277 277 276 276 276 276
303 302 301 300 298 297 294 293 292 291 291 290 289 288 288 287 286 286 286 285 284 283 282 281 280 280 279 279 278 278 278 277 277 276 276 276 276 276 275 275 275 275 275
302 301 299 298 298 295 294 292 291 291 290 289 288 287 287 286 286 286 285 284 283 282 281 280 279 279 278 278 277 277 276 276 276 275 275 275 275 274 274 274 274 275 275
301 300 299 298 296 295 292 291 291 290 289 288 287 287 286 286 285 285 284 283 282 280 280 279 279 278 278 277 276 275 275 274 274 274 274 274 273 273 273 273 273 273 274
301 299 298 297 295 293 292 290 290 289 288 288 287 287 286 285 285 284 283 282 280 279 279 279 278 278 277 275 275 274 274 274 273 273 273 273 272 273 272 273 272 272 272
301 298 297 296 295 293 291 290 289 288 288 287 286 286 285 284 284 283 281 280 279 279 279 278 278 276 275 274 274 273 273 273 273 272 273 273 272 272 271 271 271 271 271
299 297 297 296 293 292 290 290 289 288 287 287 286 285 284 283 283 282 281 279 278 278 277 277 276 275 274 274 273 273 272 272 272 272 272 272 271 270 270 270 270 271 271
297 297 296 294 292 291 290 289 288 287 286 286 285 284 283 283 282 281 280 278 277 277 277 276 275 274 274 273 273 272 271 272 272 271 271 271 270 270 270 269 269 270 270
297 296 295 293 292 291 289 288 287 286 285 285 284 283 283 282 281 280 278 277 277 277 276 275 274 274 273 273 272 272 272 271 271 270 269 269 269 269 269 269 269 270 270
297 296 295 293 291 290 289 287 287 286 285 284 284 283 282 282 281 279 277 276 276 276 275 274 274 274 273 272 272 272 271 271 270 269 268 269 269 268 268 268 268 269 269
297 295 294 293 291 290 288 287 286 285 284 283 282 282 282 281 280 278 276 276 275 275 274 274 274 273 272 272 272 271 271 270 269 268 268 268 267 267 268 268 268 268 267
296 295 294 293 292 290 288 287 285 284 283 282 281 281 281 280 279 277 276 275 275 274 274 274 273 272 272 271 271 270 270 269 268 268 268 267 267 267 267 267 267 266 266
295 295 294 293 292 290 288 286 285 284 282 281 281 281 280 279 278 276 275 275 275 274 274 273 272 272 271 270 270 269 269 268 268 268 267 267 267 267 266 266 266 266 266
295 294 293 292 291 290 288 286 284 282 282 281 280 280 279 278 276 275 275 275 274 274 273 272 272 271 270 269 269 269 268 268 268 268 267 267 266 266 265 265 265 265 265
294 293 293 292 290 289 287 285 283 282 280 280 280 279 278 277 275 274 274 274 274 273 272 272 271 270 270 269 268 268 268 268 268 267 266 266 266 265 265 265 265 265 264
293 293 292 291 289 288 287 285 283 281 280 279 279 278 278 275 274 274 274 273 273 273 272 271 270 270 269 268 268 268 268 268 267 266 266 266 266 265 265 265 264 264 264
291 291 291 290 289 287 285 283 281 280 279 279 278 279 277 275 274 274 273 273 272 272 271 270 270 269 268 268 268 267 267 267 266 266 265 265 265 265 265 264 264 264 263
289 289 289 288 287 285 284 282 280 279 278 278 278 277 275 274 274 273 273 273 272 271 271 270 269 268 268 267 267 267 266 266 266 265 265 265 265 265 264 264 263 263 264
287 287 287 286 285 284 282 280 279 278 278 278 277 275 274 273 273 273 273 272 272 271 270 269 268 267 266 266 266 266 265 265 265 264 265 265 265 264 263 263 263 263 263
286 286 285 284 283 282 281 279 278 277 277 277 276 274 273 273 273 273 272 271 270 269 268 267 266 266 265 265 265 265 264 264 264 265 264 264 264 264 263 263 263 263 263
285 284 284 283 282 280 279 278 277 277 276 276 274 273 273 273 272 272 271 269 268 268 267 266 266 265 265 265 265 265 265 264 264 264 264 264 264 263 263 262 263 263 263
283 283 282 281 280 279 278 277 277 276 276 275 273 272 272 272 271 270 269 268 267 267 266 266 265 265 265 265 265 265 265 265 265 265 265 264 264 262 262 262 263 263 263
Wind_Speed
5 5 0 6 5 6 5 7 8 9 9 8 9 11 12 13 14 14 15 16 17 18 18 18 19 19 20 20 22 23 23 25 33 40 41 45 44 49 49 51 50 50 46
12 11 10 9 9 9 9 8 8 7 8 9 10 11 12 13 14 15 15 15 16 17 17 18 18 19 21 21 22 23 25 25 28 40 43 47 47 48 49 48 47 43 45
17 14 14 12 10 9 9 8 7 8 9 10 11 12 13 13 13 13 14 15 16 16 17 17 18 19 20 22 24 24 25 27 30 37 45 44 44 47 46 46 44 47 43
17 15 13 11 10 9 8 7 7 8 10 12 13 13 13 13 13 13 14 15 15 15 16 16 18 19 21 23 24 26 27 31 36 36 40 40 41 41 39 45 54 52 50
18 15 13 11 10 9 9 8 9 10 12 13 13 13 13 14 13 14 15 15 15 15 15 17 19 20 22 25 25 27 30 33 33 35 36 39 39 41 43 45 48 52 53
17 15 14 12 10 10 10 10 11 11 12 13 14 14 14 14 14 15 16 16 15 15 17 18 19 21 23 25 26 26 28 28 30 32 34 38 39 42 48 44 46 49 52
17 17 14 12 12 11 11 12 12 13 13 14 14 15 15 16 16 17 16 16 15 16 17 18 20 21 24 27 31 33 29 24 23 27 32 34 40 43 40 45 44 44 45
19 16 14 14 13 13 13 14 14 14 14 14 15 16 17 17 18 17 17 16 15 15 17 18 21 24 25 27 34 33 31 31 29 27 28 35 35 34 33 34 37 41 43
18 16 16 15 15 14 15 15 14 14 15 16 17 17 18 19 18 18 17 16 14 15 18 21 24 25 26 31 32 34 34 34 33 32 34 33 32 29 26 30 31 35 39
19 18 18 17 17 17 16 15 16 16 16 17 18 19 19 19 18 17 16 14 15 18 20 21 22 25 30 30 31 32 35 36 38 38 36 34 31 28 25 21 26 30 33
19 19 18 19 19 19 17 17 17 18 18 19 20 20 19 18 17 17 17 16 17 19 20 20 23 27 29 29 29 29 30 31 35 35 35 33 31 30 28 25 23 25 30
19 19 20 21 21 20 20 20 18 19 21 20 20 19 18 17 17 17 17 17 18 19 20 23 26 28 29 29 27 27 27 31 33 33 32 31 32 31 30 28 25 25 25
20 21 22 23 23 23 23 22 21 21 21 20 20 19 19 18 18 17 17 17 18 19 22 25 27 28 29 29 28 28 29 30 30 30 30 31 30 30 30 31 29 30 29
22 23 24 26 25 26 25 24 24 22 21 20 20 19 19 20 18 16 16 17 18 21 24 26 28 29 28 28 29 29 29 27 27 27 29 29 29 30 31 31 33 33 32
25 25 27 27 28 29 28 27 25 23 22 21 19 18 19 20 19 18 17 17 20 22 25 27 28 29 29 29 29 28 28 27 27 28 28 30 30 30 31 31 30 32 31
28 28 29 29 30 30 29 28 26 25 24 21 20 19 20 19 19 18 18 19 21 24 26 27 28 29 29 29 29 29 27 27 27 28 28 29 29 30 31 30 29 30 29
30 31 31 32 32 31 30 29 28 25 24 22 21 21 20 18 18 18 18 19 22 24 26 27 28 29 28 28 28 28 28 27 28 28 28 28 28 28 28 29 29 28 28
31 32 33 34 32 32 31 30 28 27 24 22 22 21 20 19 18 18 19 20 22 24 26 27 29 29 29 28 28 28 28 28 27 27 28 28 28 27 27 27 28 27 26
33 34 34 34 33 32 31 30 28 26 25 24 22 20 18 19 19 18 19 21 23 25 26 28 28 29 29 29 29 29 29 29 28 27 28 28 28 26 26 25 26 24 24
34 34 35 34 33 33 31 30 28 27 26 24 22 19 19 19 18 17 19 21 24 26 28 29 30 30 30 29 29 29 30 29 28 27 27 27 27 26 25 24 24 24 23
34 34 33 33 34 32 30 29 28 27 25 23 21 21 20 19 18 18 19 22 24 27 29 31 31 31 31 31 31 31 30 29 27 27 27 27 26 26 23 22 22 21 21
30 31 31 30 30 30 29 28 27 26 24 22 21 19 19 19 18 19 21 24 26 27 29 30 31 30 30 31 32 32 31 29 27 27 27 26 25 24 21 21 21 21 20
26 27 28 28 28 28 27 27 26 24 23 22 20 18 18 17 18 20 23 25 27 28 27 28 30 31 30 30 30 31 31 29 26 26 26 26 24 21 20 20 21 21 19
23 24 25 25 25 25 25 25 23 23 22 20 19 17 17 17 19 21 24 26 26 26 27 28 29 29 29 28 27 27 27 26 26 24 24 24 23 19 19 20 20 20 18
22 22 22 23 24 24 23 23 22 22 21 19 17 17 16 17 20 22 23 24 24 25 25 24 24 24 24 24 25 25 24 22 22 22 23 22 21 17 18 21 21 19 17
22 22 22 23 23 23 23 22 22 21 20 18 17 16 17 18 19 20 21 22 21 20 20 20 21 22 23 24 25 24 22 20 20 19 19 19 17 17 19 18 18 17 16
Wind_Direction
63 91 186 260 251 246 261 280 293 307 320 331 338 341 340 341 344 346 347 345 342 339 338 337 337 337 337 337 336 334 329 324 313 317 323 331 329 330 330 330 329 328 324
194 211 225 245 250 262 265 283 295 311 324 332 333 336 339 341 342 340 338 337 338 339 338 338 335 339 341 336 335 334 330 326 318 318 323 326 327 329 328 327 326 324 321
215 224 222 225 236 246 268 285 303 318 324 329 334 335 334 331 331 331 333 335 336 335 334 333 339 338 335 336 336 332 329 323 322 318 320 325 325 328 328 326 325 324 324
217 217 224 225 237 259 275 291 309 319 323 324 321 318 317 319 323 326 329 331 331 328 329 332 330 330 331 332 333 334 328 326 324 322 323 321 323 328 326 327 326 325 323
217 221 226 233 251 270 281 295 308 310 309 307 306 309 312 314 316 321 325 324 322 325 323 321 321 324 327 332 335 332 327 324 323 324 321 320 325 328 329 323 322 322 323
223 228 231 240 258 269 280 294 296 295 298 301 303 305 306 307 314 315 316 317 318 315 315 316 317 324 326 329 328 326 325 323 322 320 317 321 323 322 321 324 323 324 323
228 231 235 249 260 271 282 283 288 293 294 296 299 302 304 308 310 312 314 311 313 313 314 316 320 322 324 323 324 328 328 324 320 316 320 320 314 319 323 322 323 321 317
232 235 242 252 265 275 278 281 283 285 290 293 298 300 303 306 307 306 307 311 311 310 310 313 317 320 324 322 327 329 330 330 329 326 316 312 318 320 318 318 315 313 317
236 242 250 261 267 271 276 276 277 282 287 292 297 300 300 299 299 304 309 308 307 310 315 318 318 321 321 327 328 331 330 331 329 328 326 326 324 321 323 317 319 322 323
241 246 254 263 270 272 270 272 277 281 286 292 294 292 292 294 297 298 303 312 313 312 315 316 317 318 325 329 330 330 328 331 330 330 331 330 330 332 329 323 322 326 323
243 252 262 269 268 266 267 270 275 279 284 287 288 289 290 292 298 305 308 306 304 311 316 316 318 323 328 330 331 330 328 325 330 330 331 332 336 336 335 331 329 325 322
251 263 270 271 267 268 268 269 273 276 278 280 281 284 289 293 296 295 296 300 304 313 318 320 323 328 330 331 332 332 331 332 332 331 332 338 338 336 335 334 329 326 324
265 270 274 274 269 268 268 268 271 272 274 277 282 286 289 289 286 290 295 298 308 314 319 324 327 329 331 331 337 337 334 334 333 334 337 337 337 333 331 333 331 333 331
272 277 279 276 270 269 269 269 269 271 274 276 278 277 281 284 285 287 292 301 308 315 320 326 330 330 331 334 336 335 333 335 338 338 335 336 336 333 334 336 333 337 335
275 276 278 278 274 272 269 269 270 272 272 270 269 270 274 275 278 285 291 301 306 316 323 326 327 330 333 332 331 332 333 338 340 339 337 339 335 333 335 337 338 337 337
275 278 280 278 275 271 271 271 271 269 266 263 262 265 268 268 277 283 289 297 309 319 323 324 327 330 329 328 329 331 335 337 338 339 340 335 334 333 334 337 340 340 338
276 277 277 277 276 274 271 271 271 267 265 263 262 265 267 271 280 280 288 302 313 318 319 322 324 325 324 326 326 328 332 335 337 337 335 333 333 333 334 335 338 340 339
275 277 275 275 273 271 270 269 267 265 266 263 262 263 263 273 277 283 294 305 311 314 317 321 321 322 323 324 324 326 329 331 332 332 332 334 334 332 333 334 336 338 338
278 276 274 272 271 269 268 266 264 262 260 259 261 261 263 273 274 284 296 306 311 314 317 317 318 319 321 321 321 323 325 326 329 331 331 331 331 332 332 331 333 335 337
278 276 274 270 268 267 266 264 261 259 257 255 256 260 268 267 274 286 297 305 310 314 316 316 319 320 320 318 318 318 318 321 325 326 326 327 328 330 330 330 333 334 337
282 278 275 270 267 266 264 260 257 256 253 252 254 266 266 270 280 290 300 307 311 314 316 317 318 318 316 315 314 312 313 316 320 321 322 324 325 325 328 330 333 332 332
281 277 274 270 266 263 261 258 255 252 249 248 258 262 265 274 284 294 303 308 310 314 316 315 315 315 314 312 310 308 308 310 313 315 318 319 320 321 324 328 332 333 332
281 277 274 269 264 260 257 254 253 251 247 249 256 258 263 273 286 298 303 308 312 315 316 315 314 314 313 311 309 306 304 306 307 309 313 314 315 316 321 325 331 330 328
281 275 269 265 261 258 256 255 251 247 246 251 254 257 266 280 291 300 307 311 313 315 317 316 315 315 314 313 311 309 305 302 302 306 308 309 309 311 318 321 321 325 322
282 274 268 264 261 258 256 252 248 245 248 251 254 259 271 284 294 303 308 311 314 317 320 320 322 325 327 328 327 321 314 306 303 305 305 303 303 306 314 321 318 317 317
282 274 268 263 259 257 251 248 245 247 250 250 252 263 276 288 300 307 309 313 318 323 326 330 334 336 338 339 337 331 324 316 311 307 304 298 297 308 306 310 318 312 313